Location: Newark
(49.9828°N, 3.1606°E)
Time: 21:05:43
(UTC+00:00)

Envisat - Pass Details

Date: 29 January 2020
Orbit: 764 x 766 km, 98.1° (Epoch: 23 February)

Event Time Altitude Azimuth Distance (km) Brightness Sun altitude
Rises 18:20:18 0° 193° (SSW) 3,221 6.5 -16.8°
Reaches altitude 10° 18:22:50 10° 203° (SSW) 2,300 5.9 -17.2°
Maximum altitude 18:27:20 32° 266° (W) 1,311 4.9 -17.9°
Drops below altitude 10° 18:31:52 10° 328° (NNW) 2,315 5.8 -18.6°
Sets 18:34:26 0° 339° (NNW) 3,246 6.5 -19.0°
